Flag for Germany Weather past 2 weeks in Stendal, Saxony-Anhalt, Germany

Now
91 °F

Scattered clouds.


Feels Like: 92 °F
Forecast: 68 / 96 °F
Wind: 1 mph from Northwest

Location: Magdeburg

Current Time: Jul 3, 2015 at 6:14:05 PM

Latest Report: Jul 3, 2015 at 6:00 PM


Visibility: 16 mi

Pressure: 30.20 "Hg

Humidity: 38%

Dew point: 62 °F

Location of StendalLocation

Historic Weather in Stendal — Graph

°F

Stendal temperature yesterday

Maximum temperature yesterday: 91 °F (at 5:00 PM)
Minimum temperature yesterday: 59 °F (at 6:00 AM)
Average temperature yesterday: 79 °F

Past Weeks' High & Low Weather Summary

 TemperatureHumidityPressure
High91 °F (Jul 2, 5:00 PM)96% (Jun 23, 6:00 AM)30.25 "Hg (Jun 23, 6:00 AM)
Low48 °F (Jun 21, 4:00 AM)26% (Jul 2, 5:00 PM)29.63 "Hg (Jun 23, 2:00 AM)
Average64 °F66%30.06 "Hg
* Reported Jun 18 4:00 PM — Jul 3 4:00 PM, Stendal, Weather by CustomWeather, © 2015

Note: Actual official high and low records may vary slightly from our data, if they occured in-between our weather recording intervals... More about our weather records

Advertising

Stendal weather history for previous 24 hours

 ConditionsComfort  
Time TempWeatherWind HumidityBarometerVisibility
4:00 PM
Fri, Jul 3
89 °FPartly sunny.2 mph40%30.21 "Hg16 mi
3:00 PM91 °FPartly sunny.2 mph34%30.21 "Hg16 mi
2:00 PM89 °FPartly sunny.2 mph35%30.21 "Hg19 mi
1:00 PM85 °FPartly sunny.3 mph40%30.21 "Hg19 mi
12:00 PM84 °FPartly sunny.2 mph45%30.25 "Hg22 mi
10:00 AM78 °FScattered clouds.2 mph53%30.25 "Hg22 mi
9:00 AM75 °FPassing clouds.1 mph55%30.25 "Hg28 mi
8:00 AM72 °FPassing clouds.2 mph59%30.22 "Hg37 mi
7:00 AM70 °FSunny.2 mph60%30.22 "Hg37 mi
6:00 AM65 °FSunny.1 mph75%30.22 "Hg37 mi
4:00 AM68 °FPassing clouds.1 mph62%30.21 "Hg25 mi
3:00 AM70 °FPassing clouds.1 mph59%30.21 "Hg28 mi
2:00 AM71 °FPassing clouds.1 mph57%30.22 "Hg31 mi
1:00 AM73 °FPassing clouds.2 mph50%30.21 "Hg31 mi
12:00 AM76 °FPassing clouds.2 mph45%30.21 "Hg37 mi
10:00 PM
Thu, Jul 2
81 °FPassing clouds.3 mph37%30.19 "Hg31 mi
9:00 PM85 °FSunny.3 mph31%30.17 "Hg31 mi
8:00 PM88 °FSunny.3 mph28%30.17 "Hg37 mi
7:00 PM90 °FSunny.3 mph27%30.17 "Hg37 mi
6:00 PM91 °FSunny.3 mph26%30.17 "Hg37 mi
Weather by CustomWeather, © 2015

See weather overviewHow to use our weather pages